| time (UTC) | temp F | wind direction | speed knots | gust knots | rain 1hr in | rain 24hr in | rain mn in | humidity % | barometer mb |
| 20260906103505 | 87 | 101 | 6.1 | 11.3 | 0.00 | 0.00 | 0.00 | 60 | 1021.7 |
| 20260906103005 | 87 | 94 | 6.1 | 11.3 | 0.00 | 0.00 | 0.00 | 61 | 1021.7 |
| 20260906102505 | 87 | 77 | 7.0 | 11.3 | 0.00 | 0.00 | 0.00 | 60 | 1021.8 |
| 20260906102005 | 87 | 74 | 7.0 | 10.4 | 0.00 | 0.00 | 0.00 | 59 | 1021.8 |
| 20260906101506 | 87 | 77 | 7.0 | 10.4 | 0.00 | 0.00 | 0.00 | 60 | 1021.9 |
| 20260906101005 | 87 | 70 | 7.8 | 10.4 | 0.00 | 0.00 | 0.00 | 60 | 1021.9 |
| 20260906095505 | 87 | 80 | 7.8 | 13.0 | 0.00 | 0.00 | 0.00 | 60 | 1022.0 |
| 20260906095006 | 86 | 76 | 7.8 | 13.0 | 0.00 | 0.00 | 0.00 | 62 | 1022.1 |
| 20260906094506 | 86 | 67 | 8.7 | 13.0 | 0.00 | 0.00 | 0.00 | 59 | 1022.1 |
| 20260906094005 | 86 | 70 | 8.7 | 12.2 | 0.00 | 0.00 | 0.00 | 59 | 1022.1 |
| 20260906093505 | 86 | 72 | 7.8 | 12.2 | 0.00 | 0.00 | 0.00 | 60 | 1022.1 |
| 20260906093006 | 86 | 70 | 8.7 | 11.3 | 0.00 | 0.00 | 0.00 | 61 | 1022.2 |
| 20260906092506 | 86 | 69 | 8.7 | 12.2 | 0.00 | 0.00 | 0.00 | 62 | 1022.2 |
| 20260906092005 | 86 | 68 | 8.7 | 12.2 | 0.00 | 0.00 | 0.00 | 62 | 1022.2 |
| 20260906091505 | 85 | 70 | 8.7 | 12.2 | 0.00 | 0.00 | 0.00 | 61 | 1022.2 |
| 20260906091005 | 85 | 67 | 8.7 | 12.2 | 0.00 | 0.00 | 0.00 | 61 | 1022.3 |
| 20260906090505 | 85 | 62 | 8.7 | 12.2 | 0.00 | 0.00 | 0.00 | 62 | 1022.2 |
| 20260906090006 | 85 | 68 | 8.7 | 12.2 | 0.00 | 0.00 | 0.00 | 61 | 1022.2 |
| 20260906085005 | 85 | 68 | 10.4 | 14.8 | 0.00 | 0.00 | 0.00 | 61 | 1022.2 |
| 20260906084505 | 85 | 61 | 10.4 | 14.8 | 0.00 | 0.00 | 0.00 | 59 | 1022.2 |
| 20260906084005 | 85 | 64 | 9.6 | 12.2 | 0.00 | 0.00 | 0.00 | 58 | 1022.1 |
| 20260906083005 | 85 | 67 | 11.3 | 13.9 | 0.00 | 0.00 | 0.00 | 58 | 1022.1 |
| 20260906082505 | 85 | 73 | 10.4 | 13.9 | 0.00 | 0.00 | 0.00 | 58 | 1022.1 |
| 20260906082005 | 85 | 64 | 9.6 | 13.9 | 0.00 | 0.00 | 0.00 | 57 | 1022.0 |
| 20260906080505 | 83 | 69 | 10.4 | 13.0 | 0.00 | 0.00 | 0.00 | 58 | 1022.0 |
| 20260906080006 | 83 | 67 | 10.4 | 13.0 | 0.00 | 0.00 | 0.00 | 59 | 1022.0 |
| 20260906074505 | 82 | 75 | 11.3 | 17.4 | 0.00 | 0.00 | 0.00 | 60 | 1022.1 |
| 20260906074006 | 82 | 78 | 10.4 | 17.4 | 0.00 | 0.00 | 0.00 | 59 | 1021.8 |
| 20260906073506 | 82 | 75 | 10.4 | 15.6 | 0.00 | 0.00 | 0.00 | 59 | 1021.9 |
| 20260906073005 | 82 | 65 | 10.4 | 13.9 | 0.00 | 0.00 | 0.00 | 60 | 1021.9 |
| 20260906071505 | 81 | 68 | 9.6 | 16.5 | 0.00 | 0.00 | 0.00 | 61 | 1021.7 |
| 20260906070506 | 81 | 69 | 10.4 | 14.8 | 0.00 | 0.00 | 0.00 | 62 | 1021.7 |
| 20260906065005 | 80 | 68 | 8.7 | 13.9 | 0.00 | 0.00 | 0.00 | 64 | 1021.5 |
| 20260906064505 | 80 | 73 | 7.0 | 10.4 | 0.00 | 0.00 | 0.00 | 66 | 1021.4 |
| 20260906064006 | 79 | 77 | 7.0 | 10.4 | 0.00 | 0.00 | 0.00 | 67 | 1021.5 |
| 20260906063505 | 79 | 83 | 7.0 | 9.6 | 0.00 | 0.00 | 0.00 | 69 | 1021.4 |
| 20260906063006 | 78 | 87 | 6.1 | 8.7 | 0.00 | 0.00 | 0.00 | 71 | 1021.5 |
| 20260906062505 | 78 | 85 | 5.2 | 8.7 | 0.00 | 0.00 | 0.00 | 72 | 1021.4 |
| 20260906061005 | 77 | 130 | 0.0 | 2.6 | 0.00 | 0.00 | 0.00 | 75 | 1021.4 |
| 20260906060505 | 77 | 0 | 0.0 | 0.0 | 0.00 | 0.00 | 0.00 | 76 | 1021.3 |
| 20260906055506 | 76 | 159 | 0.0 | 0.9 | 0.00 | 0.00 | 0.00 | 76 | 1021.1 |
| 20260906054505 | 75 | 132 | 0.9 | 2.6 | 0.00 | 0.00 | 0.00 | 79 | 1021.0 |
| 20260906054006 | 75 | 120 | 1.7 | 3.5 | 0.00 | 0.00 | 0.00 | 79 | 1021.0 |
| 20260906053005 | 74 | 103 | 1.7 | 4.3 | 0.00 | 0.00 | 0.00 | 80 | 1020.7 |
| 20260906052005 | 73 | 88 | 1.7 | 3.5 | 0.00 | 0.00 | 0.00 | 81 | 1020.5 |
| 20260906051506 | 72 | 77 | 2.6 | 3.5 | 0.00 | 0.00 | 0.00 | 82 | 1020.5 |
| 20260906050505 | 72 | 58 | 2.6 | 4.3 | 0.00 | 0.00 | 0.00 | 82 | 1020.3 |
| 20260906050006 | 72 | 55 | 2.6 | 3.5 | 0.00 | 0.00 | 0.00 | 82 | 1020.3 |
| 20260906045506 | 72 | 57 | 2.6 | 3.5 | 0.00 | 0.00 | 0.00 | 83 | 1020.3 |
| 20260906045006 | 72 | 60 | 2.6 | 3.5 | 0.00 | 0.00 | 0.00 | 82 | 1020.2 |
| 20260906044505 | 72 | 62 | 3.5 | 4.3 | 0.00 | 0.00 | 0.00 | 83 | 1020.2 |
| 20260906044005 | 72 | 58 | 3.5 | 4.3 | 0.00 | 0.00 | 0.00 | 83 | 1020.2 |
| 20260906043506 | 72 | 54 | 3.5 | 5.2 | 0.00 | 0.00 | 0.00 | 83 | 1020.1 |
| 20260906043006 | 72 | 53 | 3.5 | 5.2 | 0.00 | 0.00 | 0.00 | 83 | 1020.0 |
| 20260906042505 | 72 | 51 | 3.5 | 5.2 | 0.00 | 0.00 | 0.00 | 84 | 1019.9 |
| 20260906042006 | 72 | 51 | 3.5 | 4.3 | 0.00 | 0.00 | 0.00 | 84 | 1020.0 |
| 20260906041505 | 73 | 51 | 3.5 | 5.2 | 0.00 | 0.00 | 0.00 | 84 | 1019.9 |
| 20260906040506 | 73 | 45 | 3.5 | 5.2 | 0.00 | 0.00 | 0.00 | 85 | 1019.9 |
| 20260906040005 | 73 | 44 | 3.5 | 5.2 | 0.00 | 0.00 | 0.00 | 85 | 1019.8 |
| 20260906035505 | 73 | 47 | 3.5 | 4.3 | 0.00 | 0.00 | 0.00 | 85 | 1019.7 |
| 20260906035006 | 73 | 52 | 3.5 | 4.3 | 0.00 | 0.00 | 0.00 | 85 | 1019.7 |
| 20260906034506 | 73 | 53 | 3.5 | 4.3 | 0.00 | 0.00 | 0.00 | 85 | 1019.7 |
| 20260906034006 | 73 | 53 | 3.5 | 4.3 | 0.00 | 0.00 | 0.00 | 85 | 1019.7 |
| 20260906033505 | 73 | 58 | 3.5 | 3.5 | 0.00 | 0.00 | 0.00 | 85 | 1019.7 |
| 20260906033006 | 73 | 67 | 3.5 | 3.5 | 0.00 | 0.00 | 0.00 | 85 | 1019.6 |
| 20260906032005 | 74 | 75 | 1.7 | 2.6 | 0.00 | 0.00 | 0.00 | 85 | 1019.6 |
| 20260906031505 | 74 | 76 | 1.7 | 3.5 | 0.00 | 0.00 | 0.00 | 84 | 1019.5 |
| 20260906031005 | 74 | 76 | 1.7 | 3.5 | 0.00 | 0.00 | 0.00 | 84 | 1019.5 |
| 20260906030506 | 74 | 81 | 2.6 | 3.5 | 0.00 | 0.00 | 0.00 | 84 | 1019.6 |
| 20260906025505 | 75 | 87 | 3.5 | 4.3 | 0.00 | 0.00 | 0.00 | 83 | 1019.5 |
| 20260906025005 | 75 | 70 | 3.5 | 5.2 | 0.00 | 0.00 | 0.00 | 82 | 1019.4 |
| 20260906024505 | 76 | 51 | 4.3 | 7.0 | 0.00 | 0.00 | 0.00 | 82 | 1019.4 |
| 20260906024005 | 76 | 46 | 5.2 | 7.8 | 0.00 | 0.00 | 0.00 | 81 | 1019.4 |
| 20260906023505 | 76 | 44 | 5.2 | 7.8 | 0.00 | 0.00 | 0.00 | 81 | 1019.4 |
| 20260906023005 | 76 | 44 | 5.2 | 7.8 | 0.00 | 0.00 | 0.00 | 81 | 1019.5 |
| 20260906022505 | 76 | 48 | 6.1 | 8.7 | 0.00 | 0.00 | 0.00 | 80 | 1019.4 |
| 20260906022005 | 76 | 51 | 7.0 | 10.4 | 0.00 | 0.00 | 0.00 | 80 | 1019.4 |
| 20260906021506 | 77 | 50 | 6.1 | 10.4 | 0.00 | 0.00 | 0.00 | 80 | 1019.4 |
| 20260906021005 | 77 | 47 | 6.1 | 9.6 | 0.00 | 0.00 | 0.00 | 79 | 1019.4 |
| 20260906020505 | 77 | 45 | 6.1 | 10.4 | 0.00 | 0.00 | 0.00 | 79 | 1019.3 |
| 20260906020005 | 77 | 43 | 6.1 | 10.4 | 0.00 | 0.00 | 0.00 | 79 | 1019.3 |
| 20260906015005 | 77 | 41 | 6.1 | 8.7 | 0.00 | 0.00 | 0.00 | 80 | 1019.1 |
| 20260906014505 | 77 | 45 | 7.0 | 10.4 | 0.00 | 0.00 | 0.00 | 81 | 1019.1 |
| 20260906014005 | 77 | 48 | 7.0 | 10.4 | 0.00 | 0.00 | 0.00 | 81 | 1019.2 |
| 20260906013505 | 77 | 48 | 7.0 | 9.6 | 0.00 | 0.00 | 0.00 | 82 | 1019.1 |
| 20260906012505 | 77 | 46 | 6.1 | 9.6 | 0.00 | 0.00 | 0.00 | 82 | 1019.2 |
| 20260906012005 | 78 | 44 | 7.0 | 10.4 | 0.00 | 0.00 | 0.00 | 82 | 1019.1 |
| 20260906011004 | 77 | 45 | 5.2 | 9.6 | 0.00 | 0.00 | 0.00 | 82 | 1019.1 |
| 20260906010506 | 77 | 45 | 5.2 | 7.8 | 0.00 | 0.00 | 0.00 | 82 | 1019.1 |
| 20260906010005 | 77 | 46 | 5.2 | 8.7 | 0.00 | 0.00 | 0.00 | 82 | 1019.0 |
| 20260906005505 | 78 | 47 | 5.2 | 8.7 | 0.00 | 0.00 | 0.00 | 82 | 1019.0 |
| 20260906005006 | 78 | 48 | 5.2 | 7.8 | 0.00 | 0.00 | 0.00 | 82 | 1019.0 |
| 20260906004506 | 78 | 46 | 5.2 | 7.8 | 0.00 | 0.00 | 0.00 | 82 | 1019.0 |
| 20260906004005 | 78 | 45 | 5.2 | 7.8 | 0.00 | 0.00 | 0.00 | 82 | 1019.1 |
| 20260906003505 | 78 | 47 | 5.2 | 8.7 | 0.00 | 0.00 | 0.00 | 82 | 1019.0 |
| 20260906003005 | 78 | 47 | 5.2 | 8.7 | 0.00 | 0.00 | 0.00 | 82 | 1019.0 |
| 20260906002505 | 78 | 46 | 6.1 | 9.6 | 0.00 | 0.00 | 0.00 | 82 | 1018.9 |
| 20260906002006 | 77 | 45 | 6.1 | 9.6 | 0.00 | 0.00 | 0.00 | 83 | 1018.9 |
| 20260906001505 | 77 | 46 | 5.2 | 7.8 | 0.00 | 0.00 | 0.00 | 83 | 1018.9 |
| 20260906001005 | 77 | 47 | 5.2 | 7.8 | 0.00 | 0.00 | 0.00 | 83 | 1019.0 |
| 20260906000505 | 77 | 46 | 5.2 | 7.8 | 0.00 | 0.00 | 0.00 | 83 | 1018.9 |
| 20260906000006 | 77 | 43 | 4.3 | 7.8 | 0.00 | 0.00 | 0.00 | 83 | 1019.1 |
| 20260905235505 | 77 | 42 | 4.3 | 7.0 | 0.00 | 0.00 | 0.00 | 84 | 1019.1 |
| 20260905235005 | 77 | 44 | 4.3 | 7.0 | 0.00 | 0.00 | 0.00 | 84 | 1019.1 |
| 20260905234505 | 77 | 46 | 4.3 | 7.0 | 0.00 | 0.00 | 0.00 | 84 | 1019.1 |
| 20260905233505 | 77 | 48 | 4.3 | 7.0 | 0.00 | 0.00 | 0.00 | 83 | 1019.0 |
| 20260905233005 | 77 | 42 | 3.5 | 6.1 | 0.00 | 0.00 | 0.00 | 83 | 1019.0 |
| 20260905232505 | 77 | 38 | 3.5 | 7.0 | 0.00 | 0.00 | 0.00 | 83 | 1018.9 |
| 20260905232005 | 77 | 39 | 3.5 | 7.0 | 0.00 | 0.00 | 0.00 | 83 | 1018.9 |
| 20260905231505 | 77 | 41 | 4.3 | 7.0 | 0.00 | 0.00 | 0.00 | 83 | 1018.9 |
| 20260905231005 | 77 | 43 | 4.3 | 7.0 | 0.00 | 0.00 | 0.00 | 83 | 1018.9 |
| 20260905230506 | 77 | 43 | 3.5 | 6.1 | 0.00 | 0.00 | 0.00 | 82 | 1018.9 |
| 20260905230006 | 77 | 42 | 3.5 | 6.1 | 0.00 | 0.00 | 0.00 | 82 | 1018.9 |
| 20260905225505 | 77 | 51 | 3.5 | 5.2 | 0.00 | 0.00 | 0.00 | 81 | 1018.8 |
| 20260905224506 | 77 | 57 | 4.3 | 7.0 | 0.00 | 0.00 | 0.00 | 82 | 1018.7 |
| 20260905224005 | 77 | 56 | 4.3 | 5.2 | 0.00 | 0.00 | 0.00 | 82 | 1018.7 |
| 20260905223505 | 77 | 56 | 3.5 | 5.2 | 0.00 | 0.00 | 0.00 | 83 | 1018.6 |
| 20260905223006 | 77 | 53 | 3.5 | 4.3 | 0.00 | 0.00 | 0.00 | 83 | 1018.5 |
| 20260905222505 | 77 | 50 | 3.5 | 4.3 | 0.00 | 0.00 | 0.00 | 83 | 1018.7 |
| 20260905222005 | 77 | 53 | 3.5 | 5.2 | 0.00 | 0.00 | 0.00 | 83 | 1018.6 |
| 20260905221005 | 78 | 45 | 3.5 | 5.2 | 0.00 | 0.00 | 0.00 | 82 | 1018.5 |
| 20260905220505 | 78 | 50 | 4.3 | 7.0 | 0.00 | 0.00 | 0.00 | 82 | 1018.5 |
| 20260905215506 | 78 | 64 | 4.3 | 5.2 | 0.00 | 0.00 | 0.00 | 82 | 1018.4 |
| 20260905215005 | 78 | 61 | 4.3 | 7.0 | 0.00 | 0.00 | 0.00 | 82 | 1018.3 |
| 20260905214505 | 78 | 61 | 4.3 | 7.0 | 0.00 | 0.00 | 0.00 | 82 | 1018.2 |
| 20260905213505 | 77 | 68 | 4.3 | 7.0 | 0.00 | 0.00 | 0.00 | 83 | 1018.1 |
| 20260905213006 | 77 | 70 | 4.3 | 7.0 | 0.00 | 0.00 | 0.00 | 83 | 1018.1 |
| 20260905212005 | 76 | 85 | 3.5 | 5.2 | 0.00 | 0.00 | 0.00 | 84 | 1017.8 |
| 20260905211505 | 76 | 89 | 3.5 | 6.1 | 0.00 | 0.00 | 0.00 | 84 | 1017.8 |
| 20260905205506 | 77 | 87 | 3.5 | 5.2 | 0.00 | 0.00 | 0.00 | 81 | 1017.7 |
| 20260905205006 | 77 | 98 | 4.3 | 5.2 | 0.00 | 0.00 | 0.00 | 82 | 1017.7 |
| 20260905204505 | 77 | 103 | 4.3 | 6.1 | 0.00 | 0.00 | 0.00 | 82 | 1017.6 |
| 20260905204005 | 77 | 100 | 5.2 | 7.0 | 0.00 | 0.00 | 0.00 | 81 | 1017.6 |
| 20260905203505 | 77 | 98 | 5.2 | 7.0 | 0.00 | 0.00 | 0.00 | 81 | 1017.5 |
| 20260905203005 | 77 | 100 | 4.3 | 6.1 | 0.00 | 0.00 | 0.00 | 80 | 1017.4 |
| 20260905202506 | 77 | 102 | 4.3 | 6.1 | 0.00 | 0.00 | 0.00 | 79 | 1017.5 |
| 20260905202006 | 77 | 97 | 4.3 | 6.1 | 0.00 | 0.00 | 0.00 | 77 | 1017.5 |
| 20260905201505 | 78 | 97 | 3.5 | 6.1 | 0.00 | 0.00 | 0.00 | 76 | 1017.5 |
| 20260905200505 | 78 | 95 | 5.2 | 7.8 | 0.00 | 0.00 | 0.00 | 74 | 1017.3 |
| 20260905200006 | 78 | 101 | 5.2 | 7.8 | 0.00 | 0.00 | 0.00 | 74 | 1017.2 |
| 20260905195506 | 78 | 100 | 5.2 | 7.0 | 0.00 | 0.00 | 0.00 | 74 | 1017.1 |
| 20260905195005 | 78 | 96 | 5.2 | 7.0 | 0.00 | 0.00 | 0.00 | 73 | 1017.0 |
| 20260905194505 | 79 | 93 | 5.2 | 7.0 | 0.00 | 0.00 | 0.00 | 73 | 1016.9 |
| 20260905194006 | 79 | 89 | 5.2 | 7.0 | 0.00 | 0.00 | 0.00 | 72 | 1016.8 |
| 20260905193506 | 80 | 90 | 4.3 | 7.0 | 0.00 | 0.00 | 0.00 | 71 | 1016.8 |
| 20260905193005 | 80 | 90 | 3.5 | 7.0 | 0.00 | 0.00 | 0.00 | 70 | 1016.7 |
| 20260905192505 | 81 | 83 | 3.5 | 4.3 | 0.00 | 0.00 | 0.00 | 70 | 1016.6 |
| 20260905191505 | 81 | 74 | 2.6 | 4.3 | 0.00 | 0.00 | 0.00 | 68 | 1016.5 |
| 20260905190506 | 82 | 75 | 1.7 | 3.5 | 0.00 | 0.00 | 0.00 | 65 | 1016.5 |
| 20260905190006 | 82 | 88 | 1.7 | 2.6 | 0.00 | 0.00 | 0.00 | 65 | 1016.5 |
| 20260905185505 | 83 | 90 | 0.9 | 1.7 | 0.00 | 0.00 | 0.00 | 65 | 1016.3 |
| 20260905185005 | 83 | 90 | 0.9 | 2.6 | 0.00 | 0.00 | 0.00 | 65 | 1016.4 |
| 20260905184505 | 83 | 90 | 0.9 | 2.6 | 0.00 | 0.00 | 0.00 | 64 | 1016.2 |
| 20260905184006 | 84 | 90 | 0.9 | 1.7 | 0.00 | 0.00 | 0.00 | 64 | 1016.1 |
| 20260905183506 | 84 | 90 | 1.7 | 2.6 | 0.00 | 0.00 | 0.00 | 64 | 1016.0 |
| 20260905183006 | 85 | 90 | 1.7 | 2.6 | 0.00 | 0.00 | 0.00 | 64 | 1015.9 |
| 20260905182505 | 85 | 91 | 1.7 | 2.6 | 0.00 | 0.00 | 0.00 | 62 | 1015.9 |
| 20260905182005 | 85 | 91 | 1.7 | 2.6 | 0.00 | 0.00 | 0.00 | 62 | 1015.7 |
| 20260905181505 | 85 | 86 | 1.7 | 2.6 | 0.00 | 0.00 | 0.00 | 62 | 1015.8 |
| 20260905181005 | 85 | 79 | 1.7 | 2.6 | 0.00 | 0.00 | 0.00 | 61 | 1015.7 |
| 20260905180506 | 86 | 65 | 1.7 | 2.6 | 0.00 | 0.00 | 0.00 | 61 | 1015.7 |
| 20260905180006 | 86 | 50 | 0.9 | 2.6 | 0.00 | 0.00 | 0.00 | 60 | 1015.6 |
| 20260905175505 | 87 | 21 | 0.0 | 2.6 | 0.00 | 0.00 | 0.00 | 59 | 1015.5 |
| 20260905175005 | 87 | 0 | 0.0 | 0.0 | 0.00 | 0.00 | 0.00 | 58 | 1015.5 |
| 20260905174505 | 87 | 0 | 0.0 | 0.0 | 0.00 | 0.00 | 0.00 | 57 | 1015.4 |
| 20260905174005 | 88 | 0 | 0.0 | 0.0 | 0.00 | 0.00 | 0.00 | 57 | 1015.4 |
| 20260905173506 | 88 | 0 | 0.0 | 0.0 | 0.00 | 0.00 | 0.00 | 57 | 1015.3 |
| 20260905173006 | 88 | 0 | 0.0 | 0.0 | 0.00 | 0.00 | 0.00 | 55 | 1015.3 |
| 20260905172505 | 89 | 0 | 0.0 | 0.0 | 0.00 | 0.00 | 0.00 | 54 | 1015.4 |
| 20260905172005 | 89 | 0 | 0.0 | 0.0 | 0.00 | 0.00 | 0.00 | 56 | 1015.3 |
| 20260905171505 | 89 | 0 | 0.0 | 0.0 | 0.00 | 0.00 | 0.00 | 54 | 1015.3 |
| 20260905171005 | 90 | 0 | 0.0 | 0.0 | 0.00 | 0.00 | 0.00 | 54 | 1015.3 |
| 20260905170006 | 91 | 0 | 0.0 | 0.0 | 0.00 | 0.00 | 0.00 | 53 | 1015.3 |
| 20260905165006 | 92 | 262 | 0.0 | 1.7 | 0.00 | 0.00 | 0.00 | 50 | 1015.2 |
| 20260905164505 | 92 | 262 | 0.0 | 1.7 | 0.00 | 0.00 | 0.00 | 51 | 1015.2 |
| 20260905164005 | 93 | 262 | 0.0 | 1.7 | 0.00 | 0.00 | 0.00 | 50 | 1015.1 |
| 20260905163505 | 94 | 0 | 0.0 | 0.0 | 0.00 | 0.00 | 0.00 | 51 | 1015.1 |
| 20260905162505 | 95 | 256 | 0.9 | 2.6 | 0.00 | 0.00 | 0.00 | 46 | 1015.0 |
| 20260905161506 | 95 | 259 | 0.9 | 3.5 | 0.00 | 0.00 | 0.00 | 47 | 1015.0 |
| 20260905161005 | 95 | 254 | 0.9 | 3.5 | 0.00 | 0.00 | 0.00 | 48 | 1015.0 |
| 20260905160505 | 95 | 254 | 0.9 | 3.5 | 0.00 | 0.00 | 0.00 | 47 | 1015.0 |
| 20260905160005 | 95 | 260 | 0.9 | 3.5 | 0.00 | 0.00 | 0.00 | 46 | 1015.0 |
| 20260905155505 | 95 | 260 | 0.9 | 2.6 | 0.00 | 0.00 | 0.00 | 47 | 1015.0 |
| 20260905155005 | 95 | 259 | 1.7 | 2.6 | 0.00 | 0.00 | 0.00 | 47 | 1015.0 |
| 20260905154006 | 95 | 258 | 1.7 | 5.2 | 0.00 | 0.00 | 0.00 | 46 | 1014.9 |
| 20260905153006 | 95 | 247 | 2.6 | 5.2 | 0.00 | 0.00 | 0.00 | 47 | 1014.8 |
| 20260905152505 | 95 | 247 | 1.7 | 5.2 | 0.00 | 0.00 | 0.00 | 46 | 1014.8 |
| 20260905152005 | 95 | 258 | 1.7 | 3.5 | 0.00 | 0.00 | 0.00 | 47 | 1014.9 |
| 20260905151506 | 95 | 255 | 1.7 | 4.3 | 0.00 | 0.00 | 0.00 | 45 | 1014.9 |
| 20260905151006 | 95 | 238 | 1.7 | 4.3 | 0.00 | 0.00 | 0.00 | 46 | 1015.0 |
| 20260905150505 | 95 | 251 | 2.6 | 4.3 | 0.00 | 0.00 | 0.00 | 46 | 1014.9 |
| 20260905150005 | 95 | 250 | 2.6 | 5.2 | 0.00 | 0.00 | 0.00 | 47 | 1015.0 |
| 20260905145505 | 95 | 240 | 2.6 | 6.1 | 0.00 | 0.00 | 0.00 | 45 | 1014.9 |
| 20260905145005 | 95 | 246 | 2.6 | 6.1 | 0.00 | 0.00 | 0.00 | 46 | 1015.0 |
| 20260905144505 | 95 | 251 | 2.6 | 7.8 | 0.00 | 0.00 | 0.00 | 45 | 1015.1 |
| 20260905144005 | 95 | 249 | 2.6 | 7.8 | 0.00 | 0.00 | 0.00 | 45 | 1015.0 |
| 20260905143005 | 95 | 247 | 3.5 | 7.0 | 0.00 | 0.00 | 0.00 | 45 | 1015.1 |
| 20260905142506 | 94 | 252 | 2.6 | 7.0 | 0.00 | 0.00 | 0.00 | 46 | 1015.2 |
| 20260905142005 | 95 | 253 | 2.6 | 7.0 | 0.00 | 0.00 | 0.00 | 48 | 1015.2 |
| 20260905141505 | 95 | 248 | 2.6 | 4.3 | 0.00 | 0.00 | 0.00 | 48 | 1015.2 |
| 20260905140505 | 94 | 257 | 2.6 | 5.2 | 0.00 | 0.00 | 0.00 | 47 | 1015.4 |
| 20260905134506 | 93 | 254 | 3.5 | 7.8 | 0.00 | 0.00 | 0.00 | 46 | 1015.5 |
| 20260905134005 | 94 | 252 | 2.6 | 7.8 | 0.00 | 0.00 | 0.00 | 47 | 1015.5 |
| 20260905133505 | 94 | 245 | 2.6 | 6.1 | 0.00 | 0.00 | 0.00 | 45 | 1015.4 |
| 20260905132505 | 94 | 254 | 3.5 | 7.0 | 0.00 | 0.00 | 0.00 | 47 | 1015.6 |
| 20260905132005 | 93 | 254 | 3.5 | 9.6 | 0.00 | 0.00 | 0.00 | 47 | 1015.7 |
| 20260905131006 | 94 | 230 | 2.6 | 7.0 | 0.00 | 0.00 | 0.00 | 47 | 1015.7 |
| 20260905130505 | 93 | 242 | 2.6 | 7.0 | 0.00 | 0.00 | 0.00 | 48 | 1015.9 |
| 20260905130005 | 93 | 246 | 2.6 | 5.2 | 0.00 | 0.00 | 0.00 | 48 | 1015.9 |
| 20260905125006 | 92 | 253 | 3.5 | 6.1 | 0.00 | 0.00 | 0.00 | 48 | 1016.0 |
| 20260905124505 | 93 | 252 | 3.5 | 7.0 | 0.00 | 0.00 | 0.00 | 47 | 1016.1 |
| 20260905124005 | 93 | 247 | 3.5 | 7.8 | 0.00 | 0.00 | 0.00 | 49 | 1016.2 |
| 20260905123505 | 92 | 249 | 3.5 | 7.8 | 0.00 | 0.00 | 0.00 | 48 | 1016.3 |
| 20260905123005 | 92 | 255 | 4.3 | 7.8 | 0.00 | 0.00 | 0.00 | 49 | 1016.3 |
| 20260905122505 | 92 | 248 | 4.3 | 7.8 | 0.00 | 0.00 | 0.00 | 47 | 1016.2 |
| 20260905122006 | 92 | 244 | 3.5 | 7.8 | 0.00 | 0.00 | 0.00 | 47 | 1016.2 |
| 20260905121505 | 92 | 245 | 3.5 | 7.8 | 0.00 | 0.00 | 0.00 | 47 | 1016.3 |
| 20260905121005 | 93 | 240 | 2.6 | 7.0 | 0.00 | 0.00 | 0.00 | 50 | 1016.3 |
| 20260905120505 | 92 | 251 | 2.6 | 5.2 | 0.00 | 0.00 | 0.00 | 48 | 1016.5 |
| 20260905120005 | 92 | 258 | 2.6 | 6.1 | 0.00 | 0.00 | 0.00 | 48 | 1016.5 |
| 20260905115505 | 92 | 262 | 2.6 | 7.8 | 0.00 | 0.00 | 0.00 | 49 | 1016.6 |
| 20260905115006 | 92 | 253 | 2.6 | 7.8 | 0.00 | 0.00 | 0.00 | 49 | 1016.5 |
| 20260905114505 | 92 | 238 | 3.5 | 7.8 | 0.00 | 0.00 | 0.00 | 49 | 1016.6 |
| 20260905114005 | 91 | 241 | 3.5 | 7.8 | 0.00 | 0.00 | 0.00 | 46 | 1016.6 |
| 20260905113005 | 90 | 253 | 3.5 | 8.7 | 0.00 | 0.00 | 0.00 | 49 | 1016.6 |
| 20260905112505 | 91 | 253 | 3.5 | 7.8 | 0.00 | 0.00 | 0.00 | 50 | 1016.5 |
| 20260905112005 | 90 | 261 | 2.6 | 7.0 | 0.00 | 0.00 | 0.00 | 49 | 1016.5 |
| 20260905111505 | 90 | 255 | 2.6 | 8.7 | 0.00 | 0.00 | 0.00 | 52 | 1016.5 |
| 20260905111006 | 90 | 251 | 3.5 | 8.7 | 0.00 | 0.00 | 0.00 | 50 | 1016.5 |
| 20260905110506 | 89 | 254 | 3.5 | 8.7 | 0.00 | 0.00 | 0.00 | 51 | 1016.5 |
| 20260905110005 | 89 | 260 | 3.5 | 7.8 | 0.00 | 0.00 | 0.00 | 51 | 1016.6 |
| 20260905105505 | 90 | 260 | 3.5 | 7.8 | 0.00 | 0.00 | 0.00 | 49 | 1016.6 |
| 20260905105005 | 90 | 252 | 2.6 | 7.8 | 0.00 | 0.00 | 0.00 | 52 | 1016.7 |
| 20260905104505 | 89 | 249 | 3.5 | 8.7 | 0.00 | 0.00 | 0.00 | 53 | 1016.8 |